• în Republica Moldova
  • Lista ţărilor
  • Pe 7 zile
  • Temperatura apei
  • Hartă satelitară
  • Meteo pe hartă
  • Widget-uri
  • user-avatar
    Intrare

    Meteo pe oră la Brisbane

    Astăzi, 26 Iunie, Luni

    Timp Temperatura Precipitaţii Vânt Presiune Umiditate
    00:00 +14°C° 0 mm 2 m/s 763 mmHg 92%
    01:00 +14°C° 0 mm 2 m/s 763 mmHg 93%
    02:00 +13°C° 0 mm 2 m/s 763 mmHg 92%
    03:00 +13°C° 0 mm 2 m/s 763 mmHg 92%
    04:00 +13°C° 0 mm 2 m/s 762 mmHg 93%
    05:00 +13°C° 0 mm 2 m/s 763 mmHg 91%
    06:00 +13°C° 0 mm 2 m/s 763 mmHg 90%
    07:00 +13°C° 0 mm 2 m/s 763 mmHg 89%
    08:00 +16°C° 0 mm 2 m/s 764 mmHg 80%
    09:00 +19°C° 0 mm 2 m/s 764 mmHg 70%
    10:00 +22°C° 0 mm 1 m/s 764 mmHg 57%
    11:00 +23°C° 0 mm 1 m/s 764 mmHg 54%
    12:00 +24°C° 0 mm 1 m/s 763 mmHg 50%
    13:00 +25°C° 0 mm 1 m/s 763 mmHg 46%
    14:00 +25°C° 0 mm 2 m/s 763 mmHg 53%
    15:00 +24°C° 0 mm 2 m/s 763 mmHg 59%
    16:00 +22°C° 0 mm 3 m/s 763 mmHg 66%
    17:00 +20°C° 0 mm 3 m/s 763 mmHg 73%
    18:00 +18°C° 0 mm 3 m/s 764 mmHg 80%
    19:00 +17°C° 0 mm 3 m/s 764 mmHg 87%
    20:00 +16°C° 0 mm 3 m/s 765 mmHg 88%
    21:00 +15°C° 0 mm 2 m/s 765 mmHg 89%
    22:00 +15°C° 0 mm 2 m/s 765 mmHg 89%
    23:00 +15°C° 0 mm 2 m/s 765 mmHg 89%

    Mâine, 27 Iunie, Marţi

    Timp Temperatura Precipitaţii Vânt Presiune Umiditate
    00:00 +15°C° 0 mm 2 m/s 765 mmHg 89%
    01:00 +15°C° 0 mm 2 m/s 765 mmHg 89%
    02:00 +14°C° 0 mm 2 m/s 765 mmHg 89%
    03:00 +14°C° 0 mm 2 m/s 765 mmHg 90%
    04:00 +14°C° 0 mm 2 m/s 765 mmHg 90%
    05:00 +14°C° 0 mm 2 m/s 766 mmHg 90%
    06:00 +13°C° 0 mm 3 m/s 766 mmHg 91%
    07:00 +13°C° 0 mm 3 m/s 766 mmHg 91%
    08:00 +16°C° 0 mm 3 m/s 767 mmHg 85%
    09:00 +18°C° 0 mm 3 m/s 767 mmHg 78%
    10:00 +21°C° 0 mm 3 m/s 767 mmHg 72%
    11:00 +21°C° 0,1 mm 3 m/s 767 mmHg 70%
    12:00 +22°C° 0,1 mm 3 m/s 766 mmHg 68%
    13:00 +22°C° 0,1 mm 3 m/s 766 mmHg 66%
    14:00 +22°C° 0,1 mm 3 m/s 766 mmHg 70%
    15:00 +21°C° 0,1 mm 3 m/s 765 mmHg 73%
    16:00 +20°C° 0,1 mm 3 m/s 765 mmHg 76%
    17:00 +19°C° 0 mm 3 m/s 766 mmHg 81%
    18:00 +18°C° 0 mm 3 m/s 766 mmHg 86%
    19:00 +16°C° 0 mm 2 m/s 766 mmHg 90%
    20:00 +16°C° 0 mm 2 m/s 767 mmHg 91%
    21:00 +16°C° 0 mm 2 m/s 767 mmHg 91%
    22:00 +16°C° 0 mm 2 m/s 767 mmHg 91%
    23:00 +16°C° 0 mm 2 m/s 767 mmHg 92%

    Poimâine, 28 Iunie, Miercuri

    Timp Temperatura Precipitaţii Vânt Presiune Umiditate
    00:00 +15°C° 0 mm 1 m/s 766 mmHg 92%
    01:00 +15°C° 0 mm 1 m/s 766 mmHg 92%
    02:00 +15°C° 0,1 mm 1 m/s 766 mmHg 92%
    03:00 +15°C° 0,1 mm 1 m/s 766 mmHg 92%
    04:00 +15°C° 0,1 mm 1 m/s 766 mmHg 92%
    05:00 +15°C° 0,1 mm 1 m/s 766 mmHg 93%
    06:00 +15°C° 0,1 mm 1 m/s 766 mmHg 93%
    07:00 +15°C° 0,1 mm 1 m/s 767 mmHg 93%
    08:00 +18°C° 0,1 mm 1 m/s 767 mmHg 87%
    09:00 +20°C° 0,1 mm 1 m/s 767 mmHg 80%
    10:00 +22°C° 0,1 mm 1 m/s 767 mmHg 73%
    11:00 +23°C° 0,1 mm 2 m/s 767 mmHg 71%
    12:00 +23°C° 0,1 mm 2 m/s 766 mmHg 68%
    13:00 +24°C° 0,1 mm 3 m/s 765 mmHg 66%
    14:00 +22°C° 0 mm 3 m/s 765 mmHg 69%
    15:00 +22°C° 0 mm 3 m/s 765 mmHg 71%
    16:00 +21°C° 0 mm 3 m/s 765 mmHg 74%
    17:00 +20°C° 0 mm 3 m/s 765 mmHg 79%
    18:00 +19°C° 0 mm 3 m/s 766 mmHg 83%
    19:00 +17°C° 0 mm 3 m/s 766 mmHg 88%
    20:00 +17°C° 0 mm 3 m/s 766 mmHg 88%
    21:00 +17°C° 0 mm 3 m/s 766 mmHg 89%
    22:00 +16°C° 0 mm 3 m/s 767 mmHg 89%
    23:00 +16°C° 0 mm 3 m/s 766 mmHg 90%

    29 Iunie, Joi

    Timp Temperatura Precipitaţii Vânt Presiune Umiditate
    00:00 +16°C° 0 mm 3 m/s 766 mmHg 90%
    01:00 +16°C° 0 mm 3 m/s 765 mmHg 91%
    02:00 +14°C° 0 mm 3 m/s 765 mmHg 92%
    03:00 +14°C° 0 mm 3 m/s 765 mmHg 92%
    04:00 +14°C° 0 mm 3 m/s 765 mmHg 93%
    05:00 +15°C° 0 mm 2 m/s 765 mmHg 93%
    06:00 +14°C° 0 mm 2 m/s 765 mmHg 93%
    07:00 +14°C° 0 mm 2 m/s 765 mmHg 93%
    08:00 +17°C° 0 mm 2 m/s 765 mmHg 86%
    09:00 +19°C° 0 mm 3 m/s 765 mmHg 78%
    10:00 +21°C° 0 mm 3 m/s 765 mmHg 70%
    11:00 +22°C° 0 mm 3 m/s 764 mmHg 66%
    12:00 +23°C° 0 mm 4 m/s 763 mmHg 62%
    13:00 +25°C° 0 mm 4 m/s 762 mmHg 58%
    14:00 +25°C° 0 mm 4 m/s 762 mmHg 61%
    15:00 +23°C° 0 mm 4 m/s 762 mmHg 64%
    16:00 +23°C° 0 mm 4 m/s 761 mmHg 68%
    17:00 +22°C° 0 mm 5 m/s 762 mmHg 72%
    18:00 +20°C° 0 mm 5 m/s 762 mmHg 77%
    19:00 +19°C° 0 mm 5 m/s 762 mmHg 82%
    20:00 +19°C° 0 mm 5 m/s 762 mmHg 82%
    21:00 +19°C° 0 mm 5 m/s 762 mmHg 83%
    22:00 +19°C° 0 mm 5 m/s 762 mmHg 83%
    23:00 +17°C° 0,2 mm 5 m/s 762 mmHg 84%

    30 Iunie, Vineri

    Timp Temperatura Precipitaţii Vânt Presiune Umiditate
    00:00 +17°C° 0,2 mm 5 m/s 762 mmHg 85%
    01:00 +17°C° 0,2 mm 5 m/s 762 mmHg 85%
    02:00 +17°C° 1 mm 5 m/s 762 mmHg 88%
    03:00 +18°C° 1 mm 4 m/s 762 mmHg 90%
    04:00 +17°C° 1 mm 4 m/s 761 mmHg 92%
    05:00 +17°C° 0,6 mm 4 m/s 762 mmHg 92%
    06:00 +17°C° 0,6 mm 4 m/s 762 mmHg 91%
    07:00 +17°C° 0,6 mm 4 m/s 763 mmHg 91%
    08:00 +15°C° 1,4 mm 4 m/s 763 mmHg 91%
    09:00 +15°C° 1,4 mm 4 m/s 764 mmHg 91%
    10:00 +15°C° 1,4 mm 4 m/s 764 mmHg 91%
    11:00 +15°C° 0,1 mm 4 m/s 764 mmHg 89%
    12:00 +15°C° 0,1 mm 4 m/s 763 mmHg 88%
    13:00 +15°C° 0,1 mm 4 m/s 763 mmHg 86%
    14:00 +15°C° 0,1 mm 4 m/s 763 mmHg 86%
    15:00 +15°C° 0,1 mm 4 m/s 763 mmHg 87%
    16:00 +15°C° 0,1 mm 5 m/s 764 mmHg 88%
    17:00 +14°C° 0 mm 5 m/s 764 mmHg 87%
    18:00 +14°C° 0 mm 5 m/s 765 mmHg 86%
    19:00 +14°C° 0 mm 5 m/s 765 mmHg 86%
    20:00 +13°C° 0 mm 5 m/s 766 mmHg 85%
    21:00 +13°C° 0 mm 5 m/s 766 mmHg 84%
    22:00 +13°C° 0 mm 6 m/s 767 mmHg 83%
    23:00 +11°C° 0 mm 6 m/s 767 mmHg 83%

    1 Iulie, Sâmbătă

    Timp Temperatura Precipitaţii Vânt Presiune Umiditate
    00:00 +10°C° 0 mm 6 m/s 767 mmHg 82%
    01:00 +10°C° 0 mm 7 m/s 766 mmHg 82%
    02:00 +9°C° 0 mm 6 m/s 767 mmHg 81%
    03:00 +8°C° 0 mm 6 m/s 767 mmHg 79%
    04:00 +8°C° 0 mm 6 m/s 767 mmHg 78%
    05:00 +8°C° 0 mm 6 m/s 767 mmHg 79%
    06:00 +7°C° 0 mm 5 m/s 768 mmHg 80%
    07:00 +7°C° 0 mm 5 m/s 768 mmHg 81%
    08:00 +9°C° 0 mm 6 m/s 768 mmHg 78%
    09:00 +11°C° 0 mm 6 m/s 769 mmHg 74%
    10:00 +14°C° 0 mm 6 m/s 769 mmHg 70%
    11:00 +15°C° 0 mm 6 m/s 768 mmHg 69%
    12:00 +16°C° 0 mm 6 m/s 767 mmHg 67%
    13:00 +17°C° 0 mm 6 m/s 767 mmHg 65%
    14:00 +17°C° 0 mm 6 m/s 767 mmHg 67%
    15:00 +17°C° 0 mm 6 m/s 767 mmHg 69%
    16:00 +16°C° 0 mm 5 m/s 767 mmHg 72%
    17:00 +15°C° 0 mm 5 m/s 767 mmHg 77%
    18:00 +14°C° 0 mm 5 m/s 768 mmHg 82%
    19:00 +12°C° 0 mm 4 m/s 768 mmHg 87%
    20:00 +12°C° 0 mm 4 m/s 768 mmHg 87%
    21:00 +11°C° 0 mm 4 m/s 768 mmHg 87%
    22:00 +11°C° 0 mm 4 m/s 768 mmHg 87%
    23:00 +11°C° 0,1 mm 4 m/s 768 mmHg 88%
    Arată mai mult